Regional Weather Roundup
Issued by NWS

Home | Current Version | Previous Version | Graphics & Text | Print | Product List | Glossary On
Versions: 1 2 3 4 5 6 7 8 9 10 11 12 13 14 15 16 17 18 19 20 21 22 23 24 25 26 27 28 29 30 31 32 33 34 35 36 37 38 39 40 41 42 43 44 45 46 47 48 49 50
000
ASUS43 KMKX 201800
RWRWI

WISCONSIN REGIONAL WEATHER ROUNDUP
NATIONAL WEATHER SERVICE MILWAUKEE/SULLIVAN WI
1200 PM CST MON NOV 20 2017

NOTE: "FAIR" INDICATES FEW OR NO CLOUDS BELOW 12,000 FEET WITH NO
SIGNIFICANT WEATHER AND/OR OBSTRUCTIONS TO VISIBILITY.

WIZ001-002-006>008-014>016-023>028-201900-
NORTHWEST WISCONSIN

CITY           SKY/WX    TMP DP  RH WIND       PRES   REMARKS
SUPERIOR ARPT  MOSUNNY   33  28  81 NE3       29.49F
6HR MIN TEMP:  18; 6HR MAX TEMP:  33;

ASHLAND        CLOUDY    36  28  73 CALM      29.51F
6HR MIN TEMP:  20; 6HR MAX TEMP:  36;

HAYWARD        CLOUDY    40  26  57 S10       29.49F WCI  33
6HR MIN TEMP:  18; 6HR MAX TEMP:  40;

SIREN          CLOUDY    40  29  63 S8        29.49F
CUMBERLAND     MOSUNNY   37  30  75 S8        29.53F WCI  31
RICE LAKE      MOSUNNY   39  30  72 SE9       29.55F WCI  32
CHETEK         MOSUNNY   39  30  69 SE8       29.55F WCI  34
LADYSMITH      MOSUNNY   38  29  69 SE7       29.58F WCI  33
EAU CLAIRE     NOT AVBL
MENOMONIE      CLOUDY    46  29  51 S10       29.53F
6HR MIN TEMP:  25; 6HR MAX TEMP:  46;

NEW RICHMOND   CLOUDY    42  28  58 S7        29.53F
OSCEOLA        CLOUDY    40  29  64 S12       29.55F WCI  34
$$

WIZ003>005-009-010-017-018-201900-
NORTH CENTRAL WISCONSIN

CITY           SKY/WX    TMP DP  RH WIND       PRES   REMARKS
MANITOWISH WTR CLOUDY    34  31  87 SE5       29.56F WCI  30
ARBOR VITAE    CLOUDY    38  30  72 S8        29.56F WCI  32
WOODRUFF       CLOUDY    38  30  72 S8        29.56F WCI  32
RHINELANDER    CLOUDY    40  28  62 S8        29.57F WCI  34
EAGLE RIVER    CLOUDY    38  27  66 S6        29.56F WCI  33
6HR MIN TEMP:  17; 6HR MAX TEMP:  38;

LAND O LAKES   CLOUDY    35  30  82 S3        29.59F
PHILLIPS       CLOUDY    39  29  65 S6        29.54F WCI  35
6HR MIN TEMP:  25; 6HR MAX TEMP:  39;

TOMAHAWK       CLOUDY    36  28  71 CALM      29.60F
MEDFORD        CLOUDY    37  29  70 SE8       29.59F WCI  31
MERRILL        CLOUDY    39  28  66 S6        29.61F WCI  34
6HR MIN TEMP:  16; 6HR MAX TEMP:  40;

$$

WIZ029-030-035-036-043>047-201900-
CENTRAL WISCONSIN

CITY           SKY/WX    TMP DP  RH WIND       PRES   REMARKS
WAUSAU         CLOUDY    40  28  62 S7        29.60F
6HR MIN TEMP:  22; 6HR MAX TEMP:  40;

MOSINEE        PTSUNNY   41  28  60 S8        29.63F
MARSHFIELD     CLOUDY    44  28  53 S10       29.59F
6HR MIN TEMP:  23; 6HR MAX TEMP:  45;

STEVENS POINT  CLOUDY    40  27  59 S7        29.66F
WAUPACA        SUNNY     45  28  53 S8        29.69F
WAUTOMA        SUNNY     45  28  51 S9        29.66F
6HR MIN TEMP:  17; 6HR MAX TEMP:  45;

WISC RAPIDS    CLOUDY    46  29  51 S8        29.63F
6HR MIN TEMP:  26; 6HR MAX TEMP:  46;

CAMP DOUGLAS   PTSUNNY   46  28  49 S12       29.64F
$$

WIZ011>013-019>022-031-037>040-048>050-201900-
NORTHEAST WISCONSIN

CITY           SKY/WX    TMP DP  RH WIND       PRES   REMARKS
ANTIGO         CLOUDY    39  29  67 S7        29.63F WCI  34
SHAWANO        CLOUDY    43  29  58 S7        29.67F
6HR MIN TEMP:  26; 6HR MAX TEMP:  43;

OCONTO         CLOUDY    40  27  60 SW7       29.69F
STURGEON BAY   CLOUDY    41  29  62 S12       29.69F
6HR MIN TEMP:  27; 6HR MAX TEMP:  42;

GREEN BAY      SUNNY     40  31  70 S12       29.69F WCI  33
6HR MIN TEMP:  29; 6HR MAX TEMP:  40;

MANITOWOC      SUNNY     46  29  51 S7        29.72F
6HR MIN TEMP:  32; 6HR MAX TEMP:  46;

APPLETON       MOSUNNY   43  27  52 S12       29.67F
CLINTONVILLE   NOT AVBL
OSHKOSH        SUNNY     43  30  60 S13       29.69F
6HR MIN TEMP:  29; 6HR MAX TEMP:  43;

$$

WIZ032>034-041-042-053>061-201900-
SOUTHWEST WISCONSIN

CITY           SKY/WX    TMP DP  RH WIND       PRES   REMARKS
LA CROSSE      CLOUDY    47  30  51 S10       29.60F
6HR MIN TEMP:  33; 6HR MAX TEMP:  48;

SPARTA         SUNNY     47  31  52 S7        29.64F
VIROQUA        CLOUDY    46  32  56 S12       29.63F
6HR MIN TEMP:  29; 6HR MAX TEMP:  46;

BOSCOBEL       SUNNY     51  29  42 S9        29.68F
6HR MIN TEMP:  22; 6HR MAX TEMP:  51;

PRAIRIE DU CHI SUNNY     48  28  45 S8        29.69F
PLATTEVILLE    SUNNY     48  33  56 S16       29.73F
$$

WIZ056-057-062-063-064-067-068-201900-
SOUTH CENTRAL WISCONSIN

CITY           SKY/WX    TMP DP  RH WIND       PRES   REMARKS
REEDSBURG      SUNNY     44  30  57 S13       29.69F
BARABOO/DELLS  SUNNY     45  28  51 S13       29.69F
LONE ROCK      NOT AVBL
MINERAL POINT  CLOUDY    46  32  57 S20       29.72F
MADISON        CLOUDY    46  30  53 S16G22    29.72F
6HR MIN TEMP:  30; 6HR MAX TEMP:  46;

MIDDLETON      CLOUDY    48  30  50 SW13G20   29.73F
WATERTOWN      SUNNY     45  31  59 SW14      29.74F
MONROE         CLOUDY    45  30  57 SW17G23   29.75F
JANESVILLE     MOSUNNY   48  30  49 SW12G21   29.76F
$$

WIZ051-052-058>065-066-070>072-201900-
SOUTHEAST WISCONSIN

CITY           SKY/WX    TMP DP  RH WIND       PRES   REMARKS
MILWAUKEE      PTSUNNY   48  30  49 SW18      29.77F
6HR MIN TEMP:  32; 6HR MAX TEMP:  48;

WAUKESHA       SUNNY     43  28  56 SW13G20   29.77F
MILWAUKEE/TIMM SUNNY     46  27  46 SW16      29.77F
RACINE         SUNNY     48  30  49 SW16G26   29.79F
6HR MIN TEMP:  33; 6HR MAX TEMP:  49;

BURLINGTON     SUNNY     49  36  60 SW18      29.79F
KENOSHA        SUNNY     48  30  49 SW17G29   29.79F
6HR MIN TEMP:  32; 6HR MAX TEMP:  48;

FOND DU LAC    CLOUDY    43  29  57 S18       29.70F
6HR MIN TEMP:  31; 6HR MAX TEMP:  43;

SHEBOYGAN      SUNNY     46  31  55 SW12      29.72F
6HR MIN TEMP:  31; 6HR MAX TEMP:  46; 6HR PCP: TRACE;

WEST BEND      SUNNY     45  28  53 SW14G20   29.73F
JUNEAU         SUNNY     43  30  62 S14G20    29.75F
$$

LSZ147-162-201900-
LAKE SUPERIOR

STATION/POSITION TIME  TEMP    WIND        PRES    WAVE
                       AIR SEA DIR/SP/G            HT/PER
                 (UTC) (F)     (DEG/KT/KT) (MB)    (FT/S)
DEVILS ISLAND    1700   34     170/  4/  6 1002.0F
SAXON HARBOR     1730   37      60/  3/  4 1000.3F
$$

LMZ867-665-643>646-201900-
LAKE MICHIGAN

STATION/POSITION TIME  TEMP    WIND        PRES    WAVE
                       AIR SEA DIR/SP/G            HT/PER
                 (UTC) (F)     (DEG/KT/KT) (MB)    (FT/S)
N MID LAKE BUOY  1650   40 48  200/ 14/ 17 1008.5F   2/ 5
NORTHPORT PIER   1740   39     150/  7/ 11 1005.8F
KEWAUNEE LAKESHO 1730   40     170/  9/ 10 1006.1F
SHEBOYGAN LAKESH 1700   42     220/ 13/ 15 1008.0F
PORT WASHINGTON  1740   48     230/ 11/ 18 1008.5F
MILWAUKEE LAKESH 1730   44     230/ 19/ 22   N/A
S MID LAKE BUOY  1650   44 49  240/ 21/ 25 1011.4F   7/ 6
KENOSHA   LAKESH 1700   46     250/ 15/ 20 1010.2
$$

TC  - TEMPERATURE IN CELSIUS
VSB - VISIBILITY IN STATUTE MILES
WCI - WIND CHILL INDEX
HX  - HEAT INDEX





USA.gov is the U.S. government's official web portal to all federal, state and local government web resources and services.